Regional Weather Roundup
Issued by NWS Burlington, VT

Home | Current Version | Previous Version | Text Only | Print | Product List | Glossary On
Versions: 1 2 3 4 5 6 7 8 9 10 11 12 13 14 15 16 17 18 19 20 21 22 23 24 25 26 27 28 29 30 31 32 33 34 35 36 37 38 39 40 41 42 43 44 45 46 47 48 49 50
000
ASUS41 KBTV 230630
RWRBTV
VERMONT REGIONAL WEATHER ROUNDUP
NATIONAL WEATHER SERVICE BURLINGTON VT
200 AM EDT TUE SEP 23 2014

NOTE: "FAIR" INDICATES FEW OR NO CLOUDS BELOW 12,000 FEET WITH NO
SIGNIFICANT WEATHER AND/OR OBSTRUCTIONS TO VISIBILITY.

* THESE REPORTS ARE NOT UNDER NWS QUALITY CONTROL AND/OR DO NOT
  REPORT WEATHER SUCH AS PRECIPITATION AND FOG.

VTZ001>019-230700-
_____VERMONT_____


CITY           SKY/WX    TMP DP  RH WIND       PRES   REMARKS
BURLINGTON     CLOUDY    52  37  56 W6        30.14S
6HR MIN TEMP:  50; 6HR MAX TEMP:  52;

MONTPELIER     PTCLDY    44  35  70 W7        30.16R
6HR MIN TEMP:  41; 6HR MAX TEMP:  47;

MORRISVILLE    CLOUDY    48  35  60 W6        30.14R
6HR MIN TEMP:  47; 6HR MAX TEMP:  49;

ST. JOHNSBURY*   N/A     46  38  73 MISG      30.11R
6HR MIN TEMP:  46; 6HR MAX TEMP:  48;

MIDDLEBURY*    CLOUDY    41  41 100 CALM      30.16S
6HR MIN TEMP:  39; 6HR MAX TEMP:  47;

RUTLAND*       CLOUDY    46  39  76 CALM      30.16R
6HR MIN TEMP:  46; 6HR MAX TEMP:  50;

HIGHGATE*      CLOUDY    49  39  69 W3        30.13R
6HR MIN TEMP:  46; 6HR MAX TEMP:  49;

NEWPORT*       LGT RAIN N/A N/A N/A S3        30.11S
BENNINGTON     CLEAR     43  39  86 CALM      30.18R
6HR MIN TEMP:  43; 6HR MAX TEMP:  51;

SUTTON*          N/A     43 N/A N/A MISG        N/A
MT. MANSFIELD*   N/A     32 N/A N/A NW22        N/A

_____LAKE CHAMPLAIN_____


CITY           SKY/WX    TMP DP  RH WIND       PRES   REMARKS
BURTON ISLAND*   N/A     52  41  66 SW8         N/A

$$

NYZ007-026>031-035-052-083-230700-
_____NORTHERN NEW YORK_____


CITY           SKY/WX    TMP DP  RH WIND       PRES   REMARKS
PLATTSBURGH    CLOUDY    45  40  82 CALM      30.13S
6HR MIN TEMP:  39; 6HR MAX TEMP:  50;

SARANAC LAKE   CLEAR     40  38  93 W5        30.14R
6HR MIN TEMP:  40; 6HR MAX TEMP:  44;

MASSENA        PTCLDY    43  41  93 SW7       30.16R
6HR MIN TEMP:  41; 6HR MAX TEMP:  49;

OGDENSBURG*    CLEAR     43  43 100 SW3       30.16S
POTSDAM*       PTCLDY    43  41  93 SW3       30.17R
WATERTOWN      CLEAR     39  34  82 CALM      30.19R
6HR MIN TEMP:  39; 6HR MAX TEMP:  53;

FT DRUM        CLEAR     43  39  86 SW5       30.18R
6HR MIN TEMP:  42; 6HR MAX TEMP:  50;

ALBANY         PTCLDY    45  41  86 VRB3      30.20R
6HR MIN TEMP:  44; 6HR MAX TEMP:  53;

GLENS FALLS    CLEAR     40  37  89 CALM      30.18R
6HR MIN TEMP:  39; 6HR MAX TEMP:  52;


$$
NHZ002-005-011-230700-
_____NEW HAMPSHIRE_____


CITY           SKY/WX    TMP DP  RH WIND       PRES   REMARKS
LEBANON        CLEAR     40  35  83 CALM      30.14R
6HR MIN TEMP:  39; 6HR MAX TEMP:  53;

KEENE          CLEAR     39  30  70 CALM      30.15R
6HR MIN TEMP:  39; 6HR MAX TEMP:  54;

MT WASHINGTON  FOG       25  25 100 NW56G63     N/A  VSB 1/16WCI   3
6HR MIN TEMP:  24; 6HR MAX TEMP:  25; 6HR PCP:  0.05;

PLYMOUTH       FAIR      48  40  74 NW6       30.13R
6HR MIN TEMP:  49; 6HR MAX TEMP:  51;

WHITEFIELD     MOCLDY    46  36  68 W8        30.11R
6HR MIN TEMP:  46; 6HR MAX TEMP:  48;


$$

_____REGIONAL QUEBEC LOCATIONS_____


CITY           SKY/WX    TMP DP  RH WIND       PRES   REMARKS
MONTREAL       MOCLDY    45  39  81 SW10      30.12R
QUEBEC CITY    MOCLDY    43  39  87 W13       30.01R
SHERBROOKE     CLOUDY    45  39  81 W5        30.08R

_____REGIONAL ONTARIO LOCATIONS_____


CITY           SKY/WX    TMP DP  RH WIND       PRES   REMARKS
OTTAWA         MOCLDY    43  39  87 S7        30.13R

______KEY______
VSB  - VISIBILITY IN MILES
WCI  - WIND CHILL INDEX
HX   - HEAT INDEX
$$



USA.gov is the U.S. government's official web portal to all federal, state and local government web resources and services.